Location: Melizzano
(41.1500°N, 14.5000°E)
Time: 08:47:42
(UTC+00:00)

Meteor 1-27 Rocket - Pass Details

Date: 11 May 2021
Orbit: 830 x 910 km, 81.3° (Epoch: 15 June)

Event Time Altitude Azimuth Distance (km) Brightness Sun altitude
Exits shadow 20:16:27 33° 112° (ESE) 1,467 4.5 -19.9°
Maximum altitude 20:17:30 35° 90° (E) 1,406 4.5 -20.0°
Drops below altitude 10° 20:22:47 10° 27° (NNE) 2,590 6.5 -20.6°
Sets 20:25:27 0° 19° (NNE) 3,542 7.4 -21.0°
